sat.trackr.live / text

‹ back to catalog

STARLINK-36044

NORAD 66799 · 2025-278J

PAYLOAD ACTIVE UNKNOWN

§ Identity

Operator
Country
US
Launch date
2025-12-01
Launch site
AFETR
Launch vehicle
Mass (kg)
RCS (m²)

Purposes: comms

External: N2YO · Heavens-Above · Gunter

§ Orbital elements

Epoch: 2026-05-25T03:15:40.908096Z

Period
94.27 min
Inclination
43.0012°
Eccentricity
0.0001073
Mean motion
15.27590859 rev/d
Perigee alt
482.3 km
Apogee alt
483.8 km
Semi-major
6,861.2 km
B*
3.3246e-4
RAAN
42.3684°
Arg perigee
270.7012°
Mean anomaly
89.3717°
Rev number
2,690

§ Raw data

STARLINK-360441 66799U 25278J   26145.13589014  .00008900  00000+0  33246-3 0  99972 66799  43.0012  42.3684 0001073 270.7012  89.3717 15.27590859 26909

JSON: /api/v1/satellites/66799 · /tle

For live sub-satellite position, see the globe view (requires WebGL).

§ Visibility from observer

Set your observer location to see the next 7 days of passes ≥ 10°. The values pass through the URL so the page stays shareable.

No JS? Fill the form by hand. The geolocation button needs JavaScript.